Погода в Кременках

Россия / Калужская область     54°53′13″N   37°06′58″E
темп.,
°C
ветер,
м/с
пор.,
м/с
влажн.,
%
обл.,
%
осадки,
мм/ч
давл.,
гПа
погр.,
м
14 апреля, ср
ср1400:00+10юв396873 0.0 1021165
03:00+11ююв3116849 0.0 1020276
06:00+9ююв311846 0.0 1020281
09:00+13ююв4107183 0.0 1020526
12:00+18ю4853100 0.0 10191294
15:00+19ю4745100 0.1 10172149
18:00+16ююв235575 0.1 101798
21:00+11ссв1170100 0.1 101810
15 апреля, чт
чт1500:00+10всв2266100 0.0 101711
03:00+8в116896 0.0 101711
06:00+8в2268100 0.0 101616
09:00+12в2558100 0.0 1016240
12:00+16в3546100 0.0 1016749
15:00+17в464284 0.0 10151335
18:00+15в255250 0.0 1015151
21:00+12св5136946 0.1 1016535
16 апреля, пт
пт1600:00+9св41188100 0.3 1017499
03:00+7св512907 0.6 1017453
06:00+7всв4128989 0.0 1018494
09:00+9всв597891 0.0 1018592
12:00+14в576598 0.0 10181078
15:00+13всв586887 0.1 10191092
18:00+13всв51176100 0.4 1018862
21:00+10всв61491100 9.3 1020828
17 апреля, сб
сб1700:00+9всв51190100 3.9 1021575
03:00+8всв41191100 4.6 1021492
06:00+7всв4119282 0.1 1023470
09:00+9всв5108255 0.0 1022551
12:00+12всв5871100 0.0 1025884
15:00+15всв695954 0.0 10241248
18:00+13всв6105980 0.0 10251129
21:00+9всв5135996 0.0 1027595
18 апреля, вс
вс1800:00+7всв41261100 0.0 1028447
03:00+6всв4126892 0.0 1029396
06:00+4всв412715 0.0 1029372
09:00+9в59545 0.0 1030619
12:00+13в46425 0.0 10301218
15:00+14в46395 0.0 10311794
18:00+13в36465 0.0 1029406
21:00+7в22665 0.0 103034